Location: Columbus
(29.5618°N, 96.6770°W)
Time: 08:57:37
(UTC-05:00)

Daily predictions for brighter satellites

Satellite Brightness Start Highest point End
(mag) Time Altitude Azimuth Time Altitude Azimuth Time Altitude Azimuth
Atlas 2A Centaur Rocket 4.3 20:25:32 10° W 20:30:52 75° S 21:06:05 10° ESE
SPOT 3 Rocket 4.4 20:47:37 10° S 20:52:40 54° W 20:57:46 10° NNW
Cosmos 1844 Rocket 3.6 20:49:02 10° SSE 20:53:42 27° ESE 20:58:21 10° NE
SJ-6B 2.8 20:52:54 10° SSE 20:56:46 77° ENE 21:00:45 10° N
Cosmos 2056 Rocket 3.7 20:54:04 10° NNW 20:59:16 81° WSW 21:04:32 10° S
Cosmos 972 4.4 20:55:26 10° S 21:00:28 80° ESE 21:05:20 10° NNE
YAOGAN 6 2.6 20:59:58 10° SSE 21:03:26 60° ENE 21:06:55 10° N
Cosmos 1624 Rocket 4.4 20:58:13 10° NNW 21:03:31 68° WSW 21:08:45 10° S
CZ-3C R/B 3.5 12:25:12 10° SW 21:03:46 31° S 21:09:26 10° SE
Cosmos 1238 Rocket 4.2 21:04:00 10° ESE 21:05:03 11° E 21:06:06 10° ENE
Cosmos 2285 Rocket 4.3 20:59:07 10° S 21:05:05 44° E 21:11:01 10° NNE
Cosmos 1400 Rocket 2.8 21:01:24 10° S 21:05:26 75° E 21:09:25 10° NNE
Lacrosse 5 3.1 21:05:39 10° WSW 21:10:31 47° NW 21:15:24 10° NNE
CZ-2D R/B 4.0 21:06:55 10° S 21:10:42 54° W 21:14:30 10° NNW
BREEZE-M R/B 2.8 21:07:52 10° NW 21:11:03 39° NE 21:13:05 12° ESE
Cosmos 1655 Rocket 4.1 21:06:05 10° N 21:12:21 88° W 21:18:33 10° S
Cosmos 2266 Rocket 4.4 21:07:40 10° N 21:13:44 46° E 21:19:41 10° SSE
Cosmos 1470 2.7 21:10:14 10° N 21:14:09 86° E 21:18:05 10° S
Aureole 1 Rocket 2.3 21:14:24 10° SSW 21:17:23 81° WNW 21:20:52 10° NNE
Meteor 2-11 Rocket 4.4 21:12:06 10° S 21:18:09 83° E 21:24:14 10° N
Meteor 1-24 Rocket 4.5 21:12:56 10° SSE 21:18:20 36° E 21:23:47 10° NNE
Cosmos 1607 4.0 21:13:50 10° NNW 21:20:13 81° ENE 21:26:14 11° SSE
H-2A R/B 3.9 21:18:45 10° ESE 21:21:48 16° ENE 21:24:58 10° NNE
Cosmos 1269 Rocket 4.1 21:17:59 10° S 21:23:10 59° ESE 21:28:23 10° NNE
Cosmos 1733 4.4 21:20:33 10° NNW 21:24:07 42° W 21:27:41 10° SSW
ATLAS 2AS CENTAUR R/B 3.1 21:25:19 10° SSW 21:32:55 89° ESE 21:41:02 10° NNE
Resurs 1-3 3.5 21:30:15 10° SSE 21:34:37 87° E 21:39:01 10° N
Aurora 2 Rocket 3.6 21:29:34 10° WSW 21:34:52 53° S 21:41:56 12° E
Centaur D-1AR AC-36 3.5 21:07:39 10° W 21:35:08 51° SSW 21:38:59 19° SE
SEDSat Delta rocket 3.6 21:33:52 10° SW 21:39:21 52° SSE 21:43:33 13° E
In-Cosmos 22 4.1 21:34:42 10° S 21:40:08 70° E 21:45:45 10° NNE
Meteor 2-5 Rocket 3.9 21:34:18 10° S 21:40:16 87° W 21:46:13 10° N
Thor Agena Rocket 4.5 21:35:23 10° N 21:40:16 50° WNW 21:45:07 10° SSW
Iridium 4 Rocket 3.7 21:35:01 10° S 21:40:42 67° E 21:46:01 10° N
Cosmos 1812 Rocket 4.0 21:36:43 10° NNW 21:41:01 63° W 21:45:21 10° S
Cosmos 1953 Rocket 3.5 21:39:24 10° S 21:43:41 68° E 21:48:03 10° NNE
Palapa 6 Rocket 4.0 21:40:04 10° WSW 21:44:42 40° S 21:47:51 22° SE
Cosmos 1758 Rocket 3.6 21:44:22 10° S 21:48:49 80° W 21:53:14 10° N
Cosmos 1674 3.3 21:50:20 30° SE 21:51:18 35° E 21:54:49 10° NNE
Cosmos 1437 3.6 21:49:34 10° NNE 21:52:25 30° E 21:52:33 30° E
Meteor 1-16 Rocket 4.3 21:48:00 10° N 21:53:39 86° W 21:58:41 14° S
Cosmos 1932 4.4 21:48:52 10° NNW 21:55:06 83° ENE 21:59:00 24° SSE
Cosmos 2251 Rocket 4.3 21:56:52 27° SE 21:58:25 32° E 22:03:07 10° NE
Resurs 01 Rocket 2.6 21:58:47 11° S 22:02:48 44° W 22:07:02 10° NNW
ERS-2 2.7 22:00:37 21° S 22:02:51 54° W 22:06:27 10° NNW
USA 215 3.5 21:58:50 24° ESE 22:02:56 61° NE 22:09:23 10° NNW
Cosmos 1726 3.9 22:04:58 10° NNE 22:07:13 19° ENE 22:07:13 19° ENE
NOSS 3-4 (A) 3.6 22:04:56 10° S 22:10:48 48° ESE 22:16:45 10° NE
NOSS 3-4 (C) 3.6 22:05:03 10° S 22:10:53 48° ESE 22:16:49 10° NE
OAO 3 Rocket 4.1 22:07:24 10° WNW 22:12:10 45° N 22:15:30 18° ENE
Cosmos 921 Rocket 3.6 22:08:36 10° N 22:12:51 40° ENE 22:13:34 37° E
Delta 198 4.3 22:09:38 10° WSW 22:15:47 52° S 22:17:29 39° SE
OAO 3 Copernicus 4.2 22:11:52 10° WNW 22:16:58 89° NNE 22:18:43 42° ESE
Cosmos 1461 3.0 22:15:56 33° S 22:17:49 61° ESE 22:22:28 10° NE
Cosmos 1417 Rocket 4.4 22:16:02 23° S 22:20:09 74° E 22:26:27 10° N
ARGOS 3.1 22:17:47 35° SSE 22:20:11 80° ENE 22:25:38 10° N
Cosmos 2278 Rocket 2.4 22:18:53 36° SSE 22:20:39 49° ESE 22:26:07 10° NNE
H-II Stage 2 3.0 22:21:04 10° WSW 22:23:56 25° SW 22:23:56 25° SW
MetOp-A 4.0 22:24:08 38° SSE 22:26:15 87° ENE 22:31:38 10° NNW
ATLAS 3B CENTAUR R/B 4.2 22:05:30 10° WSW 22:28:21 62° SSE 22:35:03 22° E
Meteor 1-21 Rocket 4.4 22:30:00 44° SE 22:31:22 54° E 22:37:01 10° NNE
Cosmos 220 Rocket 3.9 22:31:09 48° SSW 22:32:16 83° WNW 22:36:30 10° NNE
Cosmos 1844 Rocket 4.5 22:32:25 10° SW 22:37:23 31° WNW 22:42:21 10° N
ASC 2 Rocket 4.3 22:33:53 10° WSW 22:38:26 34° SSW 22:38:26 34° SSW
SL-08 RB Rocket 3.7 22:39:23 59° S 22:40:14 79° WSW 22:44:55 10° NNW
KORONAS-FOTON 4.3 22:40:26 51° WSW 22:40:58 57° W 22:44:49 10° N
Cosmos 1745 Rocket 4.1 22:36:50 10° N 22:42:58 53° E 22:43:59 48° ESE
SL-14 R/B 4.5 22:44:52 32° NE 22:44:52 32° NE 22:47:14 10° NNE
COSMOS 2406 3.3 22:39:57 10° N 22:45:38 60° ENE 22:46:26 54° ESE
SPOT 5 3.3 22:45:39 49° E 22:45:50 49° ENE 22:50:51 10° N
SL-08 R/B 4.4 22:39:58 10° N 22:46:09 75° E 22:47:38 53° SSE
CZ-3 Stage 3 4.2 22:44:46 10° W 22:49:14 88° N 23:19:36 10° E
CZ-3 Stage 3 4.2 22:44:45 10° W 22:49:14 88° N 23:19:37 10° E
Cosmos 1110 Rocket 3.9 22:48:04 10° NNW 22:53:14 80° WSW 22:53:47 70° SSW
Cosmos 2084 4.0 22:49:33 10° NW 22:52:41 46° W 22:52:41 46° W
Cosmos 1346 Rocket 4.1 22:50:26 10° NNW 22:54:06 34° W 22:54:36 33° WSW
ATLAS 5 CENTAUR R/B 2.1 22:55:48 50° NE 22:55:48 50° NE 22:59:17 10° NNE
Cosmos-2242 4.4 22:53:17 10° NNW 22:57:15 34° W 22:58:13 30° WSW
ATLAS 3B R/B 2.8 22:52:35 10° NNW 22:59:02 54° ENE 23:00:07 49° E
SPOT 1/Viking Rocket 3.5 23:00:47 68° ENE 23:00:47 68° ENE 23:05:48 10° N
H-2A R/B 2.8 22:59:23 40° SW 23:00:41 48° W 23:05:53 10° NNW
S3M 4.4 23:00:15 32° SSW 23:03:15 62° W 23:09:35 10° N
USA 238 DEB 3.7 22:56:20 10° NNW 23:03:33 81° ENE 23:05:06 59° SE
USA 238 3.7 22:56:26 10° NNW 23:03:39 81° ENE 23:05:12 59° SE
Helios 1A 3.7 23:05:04 48° N 23:05:04 48° N 23:08:12 10° N
Cosmos 1331 Rocket 4.0 23:00:25 10° NNW 23:05:36 68° WSW 23:05:51 67° WSW
Helios 1B rocket 3.5 23:07:18 10° N 23:10:02 41° N 23:10:02 41° N
Cosmos 2082 Rocket 3.9 23:10:54 10° NNE 23:14:50 20° ENE 23:14:50 20° ENE
NOSS 3-2 (A) 4.2 23:07:32 10° NNW 23:15:19 64° ENE 23:17:06 53° ESE
Cosmos 1833 Rocket 4.2 23:11:17 10° N 23:15:19 23° ENE 23:15:19 23° ENE
Cosmos 1709 Rocket 4.4 23:10:17 10° N 23:15:45 46° ENE 23:15:45 46° ENE
Cosmos 1842 Rocket 4.3 23:12:58 10° NNW 23:16:22 50° NW 23:16:22 50° NW
Cosmos 1340 4.4 23:15:03 10° NNW 23:17:22 31° NW 23:17:22 31° NW
Landsat 7 4.3 23:21:20 59° NNW 23:21:20 59° NNW 23:25:12 10° NNW
CZ-2C R/B 3.6 23:17:42 10° NNE 23:21:06 35° NE 23:21:06 35° NE
Aureole 3 Rocket 4.3 23:24:36 67° SE 23:25:15 71° E 23:31:29 10° NNE
SEDSat Delta rocket 4.3 23:20:26 10° W 23:23:43 38° W 23:23:43 38° W
ERS-1 Rocket 4.1 23:26:45 35° WSW 23:26:55 35° W 23:31:30 10° NNW
Aurora 2 Rocket 3.9 23:22:03 10° W 23:28:29 61° SSW 23:28:29 61° SSW
Cosmos 1302 Rocket 4.5 23:29:24 10° NNW 23:33:50 58° NW 23:33:50 58° NW
Cosmos 1375 Rocket 4.4 23:28:16 10° NNW 23:34:46 87° WNW 23:34:46 87° WNW
Terra 2.8 23:41:23 44° NNW 23:41:23 44° NNW 23:44:38 10° NNW
NOSS 3-2 (C) 4.1 23:33:25 10° NNW 23:41:15 68° ENE 23:42:13 63° E
USA 215 4.5 23:46:11 27° WSW 23:46:11 27° WSW 23:51:29 10° WNW
Cosmos 2221 4.3 23:42:42 10° NNW 23:45:02 30° NNW 23:45:02 30° NNW
Cosmos 2315 Rocket 4.1 23:47:00 68° W 23:47:00 68° W 23:53:20 10° N
